Dubuque, IA

1:21 AM CST on December 15, 2017 (GMT -0600)
Dubuque Regional

Weather History for KDBQ - May, 2014

Change the Weather History Date:

Saturday, May 3, 2014

  Actual Average Record
Temperature  
Mean Temperature 54 °F 55 °F  
Max Temperature 65 °F 65 °F 88 °F (1949)
Min Temperature 42 °F 44 °F 21 °F (2005)
Degree Days  
Heating Degree Days 11 11  
Month to date heating degree days 48 33  
Since 1 July heating degree days 8148 6854  
Cooling Degree Days 0 0  
Month to date cooling degree days 0 0  
Year to date cooling degree days 0 5  
Growing Degree Days 3 (Base 50)    
Moisture  
Dew Point 37 °F    
Average Humidity 60    
Maximum Humidity 83    
Minimum Humidity 37    
Precipitation  
Precipitation 0.00 in 0.13 in 1.90 in (2013)
Month to date precipitation 0.01 0.40  
Year to date precipitation 9.62 9.08  
Snow  
Snow 0.00 in 0.00 in - ()
Month to date snowfall 0.0 0.0  
Since 1 July snowfall 63.3 41.9  
Snow Depth 0.00 in    
Sea Level Pressure  
Sea Level Pressure 29.82 in    
Wind  
Wind Speed 14 mph (WNW)    
Max Wind Speed 29 mph    
Max Gust Speed 36 mph    
Visibility 10 miles    
Events      
T = Trace of Precipitation, MM = Missing Value Source: NWS Daily Summary

Daily Weather History Graph

Daily Weather History Graph

Search for Another Location

Airport or City:

Trip Planner

Search our weather history database for the weather conditions in past years. The results will help you decide how hot, cold, wet, or windy it might be!

Date:

Astronomy

May. 03, 2014 Rise Set
Actual Time 5:55 AM CDT 8:04 PM CDT
Civil Twilight 5:24 AM CDT 8:35 PM CDT
Nautical Twilight 4:46 AM CDT 9:13 PM CDT
Astronomical Twilight 4:04 AM CDT 9:55 PM CDT
Moon 9:24 AM CDT (5/3) No Moon Set
Length of Visible Light 15h 11m
Length of Day
14h 09m
Waxing Crescent, 20% of the Moon is Illuminated
May 3
Waxing Crescent
May 6
First Quarter
May 14
Full
May 21
Last Quarter
May 28
New

Hourly Weather History & Observations

Time (CDT) Temp. Windchill Dew Point Humidity Pressure Visibility Wind Dir Wind Speed Gust Speed Precip Events Conditions
12:53 AM 46.0 °F 40.2 °F 41.0 °F 83% 29.70 in 10.0 mi West 12.7 mph - N/A   Clear
1:53 AM 45.0 °F 40.1 °F 39.9 °F 82% 29.71 in 10.0 mi WNW 9.2 mph - N/A   Clear
2:53 AM 44.1 °F 38.6 °F 39.0 °F 82% 29.72 in 10.0 mi WNW 10.4 mph - N/A   Clear
3:53 AM 44.1 °F 39.0 °F 37.9 °F 79% 29.73 in 10.0 mi WNW 9.2 mph - N/A   Clear
4:53 AM 44.1 °F 37.4 °F 37.0 °F 76% 29.74 in 10.0 mi WNW 13.8 mph - N/A   Clear
5:53 AM 42.1 °F 36.6 °F 35.1 °F 76% 29.76 in 10.0 mi NW 9.2 mph - N/A   Clear
6:53 AM 44.1 °F 39.0 °F 36.0 °F 73% 29.80 in 10.0 mi WNW 9.2 mph - N/A   Clear
7:53 AM 48.0 °F - 37.0 °F 66% 29.81 in 10.0 mi WNW 11.5 mph - N/A   Clear
8:53 AM 53.1 °F - 36.0 °F 52% 29.83 in 10.0 mi NNW 13.8 mph - N/A   Clear
9:53 AM 55.0 °F - 35.1 °F 47% 29.83 in 10.0 mi WNW 15.0 mph - N/A   Clear
10:53 AM 57.9 °F - 35.1 °F 42% 29.83 in 10.0 mi WNW 13.8 mph - N/A   Clear
11:53 AM 59.0 °F - 37.0 °F 44% 29.84 in 10.0 mi West 19.6 mph 27.6 mph N/A   Clear
12:53 PM 61.0 °F - 36.0 °F 39% 29.85 in 10.0 mi WNW 24.2 mph 34.5 mph N/A   Clear
1:53 PM 63.0 °F - 37.0 °F 38% 29.84 in 10.0 mi WNW 19.6 mph 33.4 mph N/A   Scattered Clouds
2:53 PM 62.1 °F - 37.0 °F 39% 29.84 in 10.0 mi WNW 19.6 mph 32.2 mph N/A   Clear
3:53 PM 64.9 °F - 39.0 °F 39% 29.83 in 10.0 mi WNW 26.5 mph 33.4 mph N/A   Scattered Clouds
4:53 PM 64.0 °F - 37.9 °F 38% 29.84 in 10.0 mi NW 23.0 mph 31.1 mph N/A   Partly Cloudy
5:53 PM 62.1 °F - 37.9 °F 41% 29.86 in 10.0 mi WNW 23.0 mph 31.1 mph N/A   Partly Cloudy
6:53 PM 60.1 °F - 37.0 °F 42% 29.86 in 10.0 mi NW 12.7 mph 23.0 mph N/A   Clear
7:53 PM 57.0 °F - 37.0 °F 47% 29.87 in 10.0 mi NW 10.4 mph - N/A   Mostly Cloudy
8:53 PM 55.0 °F - 37.9 °F 53% 29.89 in 10.0 mi NW 9.2 mph - N/A   Scattered Clouds
9:53 PM 55.0 °F - 37.0 °F 51% 29.92 in 10.0 mi NW 11.5 mph - N/A   Overcast
10:53 PM 54.0 °F - 34.0 °F 47% 29.92 in 10.0 mi NNW 13.8 mph - N/A   Overcast
11:53 PM 52.0 °F - 34.0 °F 50% 29.94 in 10.0 mi WNW 6.9 mph - N/A   Overcast